STARLINK-35196, 66007

Orbit data source: Space-Track

STARLINK-35196, 66007 is a payload satellite owned by SpaceX/Seattle (US) in LEO that was launched on Thu, 16 Oct 2025 UTC via an FALCON 9 launch vehicle from the Air Force Eastern Test Range (AFETR). Payload-class satellites include a variety of spacecraft equipped with specific instruments for various scientific and technological missions. These include communications satellites like Starlink; space stations such as the ISS; scientific satellites like the Hubble; Earth observation satellites from companies like Planet Labs, Umbra, and HawkEye 360; GPS; miniature CubeSats for education and research; and military/defense satellites.

Loading next visibility...
Identifier
66007, 2025-232C
Orbit
LEO
Country
Flag of USUS
Related business
Manufacturer
SpaceX/Seattle
Mission
Operational Commercial Communications
Bus & Motor
STARLINK V2MO, Unknown motor
Mass
575 kg wet, ~530 kg dry
Launch date (UTC)
2025-10-16 (8 months ago)
Launch vehicle
FALCON 9
Launch site
Air Force Eastern Test Range (AFETR)
Object type
Payload
Rocket body
Debris
Shape & HBR
Box + 2 Pan, 17.7 m
Radar Cross Section
36.964 m², Large (>1 m²)

Expand to show TLE details & history
Last TLE update: 11 hours ago

TLE from 11 hours ago
0 STARLINK-35196
1 66007U 25232C   26171.46732395  .00013095  00000-0  45344-3 0  9990
2 66007  53.1603 346.3538 0001498  79.3627 280.7542 15.30201513 39165
Epoch: 2026-06-20T11:12Z
TLE epoch observation values (Epoch: 2026-06-20T11:12:56.789Z)
Latitude
-0.00005°
Longitude
-90.56438°
Altitude
475.919 km
Speed
7.629 km/s
True Right ascension
23h 05m 24s
True Declination
0° 00' 00"
Sunlit
Object was in daylight at epoch
Visualization orbit readout
Latitude
Unknown
Longitude
Unknown
Altitude
Unknown
Speed
Unknown
Apparent Right ascension
Unknown
Apparent Declination
Unknown
Sunlit
N/A
Visualization observer readout
Local Sidereal Time
08:41:48
Azimuth
Unknown
Elevation
Unknown
Doppler factor
Unknown
Orbital elements
Apogee altitude
476.494 km
Perigee altitude
474.44 km
Semi-major axis
6,853.604 km
Eccentricity
0.00015
Inclination
53.1603°
RAAN
346.3538°
Arg. of periapsis
79.3627°
True anomaly
280.73734°
Mean anomaly
280.7542°
Eccentric anomaly
280.74577°
Mean motion
3.82529 °/min
Orbital period
94.11 mins
BSTAR
0.00045344
Loading maneuver chart data...
Computing Atmospheric mass density...
Loading historical data...
Loading historical data...
Loading historical data...
Loading historical data...
Loading historical data...
Loading historical data...
Loading historical data...

Documentation

Showing up to 5 results
|